Location: Newark
(35.6799°N, 139.7636°E)
Time: 21:07:57
(UTC+00:00)

Explorer 7 - Pass Details

Date: 11 December 2019
Orbit: 485 x 679 km, 50.3° (Epoch: 21 January)

Event Time Altitude Azimuth Distance (km) Brightness Sun altitude
Rises 05:11:49 0° 216° (SW) 2,912 12.1 20.5°
Reaches altitude 10° 05:14:07 10° 212° (SSW) 2,033 11.9 20.2°
Maximum altitude 05:18:43 54° 135° (SE) 802 8.0 19.6°
Drops below altitude 10° 05:23:29 10° 59° (ENE) 2,110 9.3 19.0°
Sets 05:25:55 0° 55° (NE) 3,033 10.0 18.6°
